Regional Weather Roundup
Issued by NWS

Home | Current Version | Previous Version | Graphics & Text | Print | Product List | Glossary Off
Versions: 1 2 3 4 5 6 7 8 9 10 11 12 13 14 15 16 17 18 19 20 21 22 23 24 25 26 27 28 29 30 31 32 33 34 35 36 37 38 39 40 41 42 43 44 45 46 47 48 49 50

000
ASUS43 KMKX 020611
RWRWI

WISCONSIN REGIONAL WEATHER ROUNDUP
NATIONAL WEATHER SERVICE MILWAUKEE/SULLIVAN WI
100 AM CDT WED SEP 02 2015

NOTE: "FAIR" INDICATES FEW OR NO CLOUDS BELOW 12,000 FEET WITH NO
SIGNIFICANT WEATHER AND/OR OBSTRUCTIONS TO VISIBILITY.

WIZ001-002-006>008-014>016-023>028-020700-
NORTHWEST WISCONSIN

CITY           SKY/WX    TMP DP  RH WIND       PRES   REMARKS
SUPERIOR ARPT  FAIR      67  67  99 CALM      29.92F FOG
6HR MIN TEMP:  65; 6HR MAX TEMP:  77;

ASHLAND        FAIR      64  64 100 CALM      29.94S FOG
6HR MIN TEMP:  64; 6HR MAX TEMP:  81;

HAYWARD        FAIR      68  67  96 CALM      29.96R FOG
6HR MIN TEMP:  67; 6HR MAX TEMP:  79;

SIREN          CLOUDY    75  72  90 SE6       29.93S
6HR MIN TEMP:  72; 6HR MAX TEMP:  81;

CUMBERLAND     FAIR      70  68  94 CALM      29.96S FOG
RICE LAKE      FOG       71  69  95 CALM      29.97R VSB 3/4
6HR MIN TEMP:  70; 6HR MAX TEMP:  77;

CHETEK         FAIR     N/A N/A N/A CALM      29.96R FOG
LADYSMITH      FAIR      73  70  92 CALM      29.98S
6HR MIN TEMP:  73; 6HR MAX TEMP:  79;

EAU CLAIRE     FAIR      73  71  93 S5        29.95R
6HR MIN TEMP:  73; 6HR MAX TEMP:  84;

MENOMONIE      FAIR      73  71  96 S5        29.96R
6HR MIN TEMP:  72; 6HR MAX TEMP:  83;

NEW RICHMOND   FAIR      73  73  97 S6        29.95S
6HR MIN TEMP:  73; 6HR MAX TEMP:  81;

OSCEOLA        CLOUDY    75  75 100 S3        29.96S
6HR MIN TEMP:  74; 6HR MAX TEMP:  80;

$$

WIZ003>005-009-010-017-018-020700-
NORTH CENTRAL WISCONSIN

CITY           SKY/WX    TMP DP  RH WIND       PRES   REMARKS
MANITOWISH WTR FOG       62  62 100 CALM      29.99S VSB 1/2
6HR MIN TEMP:  61; 6HR MAX TEMP:  75;

ARBOR VITAE    FAIR      67  65  95 CALM      29.99F FOG
6HR MIN TEMP:  66; 6HR MAX TEMP:  77;

WOODRUFF       FAIR      67  65  95 CALM      29.99F FOG
6HR MIN TEMP:  66; 6HR MAX TEMP:  77;

RHINELANDER    MOCLDY    66  65  96 CALM      30.00F FOG
6HR MIN TEMP:  67; 6HR MAX TEMP:  78;

EAGLE RIVER    FOG       65  65 100 CALM      29.99F VSB 1/2
6HR MIN TEMP:  64; 6HR MAX TEMP:  75;

LAND O LAKES     N/A     61  61  99 CALM      30.00F FOG
6HR MIN TEMP:  61; 6HR MAX TEMP:  76;

PHILLIPS       FAIR      68  68 100 CALM      29.98S FOG
6HR MIN TEMP:  67; 6HR MAX TEMP:  77;

TOMAHAWK       FOG       66  65  97 CALM      30.00S VSB 3/4
6HR MIN TEMP:  66; 6HR MAX TEMP:  76;

MEDFORD        FAIR      70  70  99 S3        30.00R FOG
6HR MIN TEMP:  67; 6HR MAX TEMP:  78;

MERRILL        FOG       67  67 100 CALM      29.99S VSB 1/4
6HR MIN TEMP:  66; 6HR MAX TEMP:  80;

$$

WIZ029-030-035-036-043>047-020700-
CENTRAL WISCONSIN

CITY           SKY/WX    TMP DP  RH WIND       PRES   REMARKS
WAUSAU         CLOUDY    73  70  90 CALM      29.97S FOG
6HR MIN TEMP:  72; 6HR MAX TEMP:  81;

MOSINEE        FAIR      70  70 100 S6        30.00S FOG
MARSHFIELD     FOG       72  68  87 CALM      29.99S VSB 1
6HR MIN TEMP:  71; 6HR MAX TEMP:  81;

STEVENS POINT  FAIR      70  68  95 CALM      30.00R
6HR MIN TEMP:  69; 6HR MAX TEMP:  80;

WAUPACA        FAIR      72  72  98 CALM      29.98S FOG
6HR MIN TEMP:  72; 6HR MAX TEMP:  84;

WAUTOMA        FAIR      70  70 100 CALM      29.99S FOG
6HR MIN TEMP:  70; 6HR MAX TEMP:  84;

WISC RAPIDS    MOCLDY    73  70  90 SW5       30.00R
6HR MIN TEMP:  71; 6HR MAX TEMP:  81;

CAMP DOUGLAS   FAIR      68  68 100 SE2       29.98S FOG
                                      6HR PCP: TRACE;

$$

WIZ011>013-019>022-031-037>040-048>050-020700-
NORTHEAST WISCONSIN

CITY           SKY/WX    TMP DP  RH WIND       PRES   REMARKS
ANTIGO         MOCLDY    67  67  99 CALM      30.00F FOG
SHAWANO        FAIR      74  71  88 CALM      29.97S
6HR MIN TEMP:  74; 6HR MAX TEMP:  82;

OCONTO         FAIR      69  69 100 CALM      29.94F
6HR MIN TEMP:  69; 6HR MAX TEMP:  80;

STURGEON BAY   FAIR      72  68  88 S6        29.98F
6HR MIN TEMP:  72; 6HR MAX TEMP:  75;

GREEN BAY      FAIR      73  71  93 S5        29.97S FOG
6HR MIN TEMP:  72; 6HR MAX TEMP:  81;

MANITOWOC      MOCLDY    63  60  90 MISG      29.98F
6HR MIN TEMP:  62; 6HR MAX TEMP:  70;

APPLETON       FAIR      72  70  94 E3        29.97S
CLINTONVILLE   FAIR      70  68  94 CALM      29.97S FOG
OSHKOSH        FAIR      72  69  90 S5        29.98S FOG
6HR MIN TEMP:  71; 6HR MAX TEMP:  79;

$$

WIZ032>034-041-042-053>061-020700-
SOUTHWEST WISCONSIN

CITY           SKY/WX    TMP DP  RH WIND       PRES   REMARKS
LA CROSSE      FAIR      77  73  87 SE5       29.95S
6HR MIN TEMP:  77; 6HR MAX TEMP:  85;

SPARTA         FAIR      70  68  93 CALM      29.98S
6HR MIN TEMP:  70; 6HR MAX TEMP:  83;

VIROQUA          N/A     73  73 100 SW7       30.01S
6HR MIN TEMP:  73; 6HR MAX TEMP:  80;

BOSCOBEL       FOG       71  69  93 CALM      29.99S VSB 1/4
6HR MIN TEMP:  69; 6HR MAX TEMP:  85;

PRAIRIE DU CHI FAIR      77  69  76 CALM      29.99S
6HR MIN TEMP:  76; 6HR MAX TEMP:  84;

PLATTEVILLE    FAIR      71  70  95 S7        30.02S
6HR MIN TEMP:  71; 6HR MAX TEMP:  80;

$$

WIZ056-057-062-063-064-067-068-020700-
SOUTH CENTRAL WISCONSIN

CITY           SKY/WX    TMP DP  RH WIND       PRES   REMARKS
REEDSBURG      FAIR      75  73  91 SW5       29.98S
6HR MIN TEMP:  75; 6HR MAX TEMP:  81;

BARABOO/DELLS  FAIR      74  70  87 SW6       29.99S
6HR MIN TEMP:  73; 6HR MAX TEMP:  82;

LONE ROCK      FAIR      71  69  93 CALM      29.99F
6HR MIN TEMP:  71; 6HR MAX TEMP:  84;

MINERAL POINT  FAIR      73  70  88 SW5       30.02F
MADISON        FAIR      77  70  79 SW6       29.99S
6HR MIN TEMP:  75; 6HR MAX TEMP:  84;

MIDDLETON      FAIR      78  70  76 SW7       30.00S HX  80
6HR MIN TEMP:  73; 6HR MAX TEMP:  82;

WATERTOWN      FAIR      70  70 100 CALM      30.00F
6HR MIN TEMP:  70; 6HR MAX TEMP:  81;

MONROE         FAIR      72  70  94 SW9       30.02S
JANESVILLE     FAIR      73  72  94 S6        30.01S
$$

WIZ051-052-058>065-066-070>072-020700-
SOUTHEAST WISCONSIN

CITY           SKY/WX    TMP DP  RH WIND       PRES   REMARKS
MILWAUKEE      FAIR      77  70  79 SW10      30.00F
6HR MIN TEMP:  76; 6HR MAX TEMP:  85;

WAUKESHA       FAIR      72  68  88 S3        30.02F
MILWAUKEE/TIMM FAIR      73  68  83 SW3       30.01S
RACINE         MOCLDY    76  70  82 SW3       30.02F
6HR MIN TEMP:  76; 6HR MAX TEMP:  84;

BURLINGTON     FAIR      68  67  97 SW3       30.02S FOG
6HR MIN TEMP:  67; 6HR MAX TEMP:  79;

KENOSHA        FAIR      76  72  87 SW7       30.02S
6HR MIN TEMP:  76; 6HR MAX TEMP:  84;

FOND DU LAC    FAIR      74  71  91 S6        29.99S
6HR MIN TEMP:  73; 6HR MAX TEMP:  81;

SHEBOYGAN      FAIR      70  68  93 SW3       29.99S FOG
6HR MIN TEMP:  69; 6HR MAX TEMP:  78;

WEST BEND      FAIR      73  68  83 CALM      30.00S
JUNEAU         FAIR      73  71  92 S3        30.02S
6HR MIN TEMP:  72; 6HR MAX TEMP:  80; 6HR PCP:  0.05;

$$

LSZ147-162-020700-
LAKE SUPERIOR

STATION/POSITION TIME  TEMP    WIND        PRES    WAVE
                       AIR SEA DIR/SP/G            HT/PER
                 (UTC) (F)     (DEG/KT/KT) (MB)    (FT/S)
W MID LAKE BUOY  0550   61 56  130/  4/  4 1013.7S   0
DEVILS ISLAND    0600   72     170/  3/  3 1013.3R
PORT WING        0540   68     170/  3/  3 1013.5S
SAXON HARBOR     0540   66        CALM     1013.2S
$$

LMZ867-665-643>646-020700-
LAKE MICHIGAN

STATION/POSITION TIME  TEMP    WIND        PRES    WAVE
                       AIR SEA DIR/SP/G            HT/PER



USA.gov is the U.S. government's official web portal to all federal, state and local government web resources and services.